When you browse on this site, cookies collect data to enhance your experience and personalize the content and advertising you see.
Visit our Privacy Policy to learn more. By continuing to use the site, you agree to this use of cookies and data.
  • In United Kingdom
  • List of Countries
  • For 7 days
  • Water Temperature
  • Satellite Maps
  • Weather Map
  • Weather Widgets
  • user-avatar
    Login

    Hourly Weather Santa Maria Huazolotitlan

    Today, 21 June, Friday

    Time Temperature Precipitation Wind Pressure Humidity
    00:00 +27°C° 0 mm 1 mps 736 mmHg 84%
    01:00 +27°C° 0 mm 1 mps 736 mmHg 84%
    02:00 +26°C° 0 mm 1 mps 735 mmHg 84%
    03:00 +26°C° 0 mm 1 mps 735 mmHg 83%
    04:00 +26°C° 0 mm 1 mps 735 mmHg 82%
    05:00 +26°C° 0 mm 1 mps 736 mmHg 81%
    06:00 +29°C° 0 mm 1 mps 736 mmHg 72%
    07:00 +31°C° 0 mm 1 mps 737 mmHg 62%
    08:00 +34°C° 0 mm 1 mps 737 mmHg 53%
    09:00 +35°C° 0 mm 1 mps 737 mmHg 48%
    10:00 +37°C° 0 mm 2 mps 737 mmHg 44%
    11:00 +39°C° 0 mm 2 mps 737 mmHg 39%
    12:00 +38°C° 0 mm 3 mps 736 mmHg 40%
    13:00 +38°C° 0 mm 3 mps 736 mmHg 42%
    14:00 +38°C° 0 mm 4 mps 735 mmHg 43%
    15:00 +36°C° 0.2 mm 3 mps 735 mmHg 48%
    16:00 +35°C° 0.2 mm 3 mps 735 mmHg 53%
    17:00 +32°C° 0.2 mm 2 mps 735 mmHg 59%
    18:00 +31°C° 0.1 mm 2 mps 736 mmHg 66%
    19:00 +29°C° 0.1 mm 1 mps 736 mmHg 73%
    20:00 +27°C° 0.1 mm 1 mps 737 mmHg 80%
    21:00 +27°C° 0.1 mm 1 mps 737 mmHg 80%
    22:00 +27°C° 0.1 mm 1 mps 737 mmHg 80%
    23:00 +27°C° 0.1 mm 1 mps 738 mmHg 80%

    Tomorrow, 22 June, Saturday

    Time Temperature Precipitation Wind Pressure Humidity
    00:00 +27°C° 0 mm 1 mps 737 mmHg 80%
    01:00 +26°C° 0 mm 1 mps 737 mmHg 80%
    02:00 +26°C° 0 mm 1 mps 736 mmHg 80%
    03:00 +26°C° 0 mm 1 mps 736 mmHg 80%
    04:00 +26°C° 0 mm 1 mps 736 mmHg 80%
    05:00 +26°C° 0 mm 1 mps 736 mmHg 80%
    06:00 +28°C° 0 mm 1 mps 736 mmHg 70%
    07:00 +31°C° 0 mm 1 mps 737 mmHg 61%
    08:00 +33°C° 0 mm 1 mps 737 mmHg 51%
    09:00 +35°C° 0 mm 1 mps 737 mmHg 46%
    10:00 +37°C° 0 mm 2 mps 737 mmHg 41%
    11:00 +39°C° 0 mm 3 mps 736 mmHg 36%
    12:00 +38°C° 0 mm 4 mps 736 mmHg 38%
    13:00 +38°C° 0 mm 4 mps 736 mmHg 40%
    14:00 +37°C° 0 mm 5 mps 735 mmHg 42%
    15:00 +36°C° 0 mm 4 mps 735 mmHg 48%
    16:00 +34°C° 0 mm 3 mps 735 mmHg 54%
    17:00 +32°C° 0 mm 2 mps 735 mmHg 61%
    18:00 +31°C° 0.2 mm 2 mps 736 mmHg 67%
    19:00 +29°C° 0.2 mm 1 mps 736 mmHg 73%
    20:00 +28°C° 0.2 mm 1 mps 737 mmHg 79%
    21:00 +28°C° 0.2 mm 1 mps 737 mmHg 80%
    22:00 +28°C° 0.2 mm 1 mps 737 mmHg 81%
    23:00 +28°C° 0.2 mm 1 mps 737 mmHg 82%

    Day after tomorrow, 23 June, Sunday

    Time Temperature Precipitation Wind Pressure Humidity
    00:00 +27°C° 0.2 mm 1 mps 737 mmHg 83%
    01:00 +27°C° 0.2 mm 1 mps 737 mmHg 84%
    02:00 +26°C° 0.2 mm 1 mps 736 mmHg 86%
    03:00 +26°C° 0 mm 1 mps 736 mmHg 86%
    04:00 +26°C° 0 mm 1 mps 736 mmHg 86%
    05:00 +26°C° 0 mm 1 mps 736 mmHg 86%
    06:00 +28°C° 0 mm 1 mps 736 mmHg 76%
    07:00 +31°C° 0 mm 1 mps 737 mmHg 66%
    08:00 +33°C° 0 mm 1 mps 737 mmHg 55%
    09:00 +34°C° 0.1 mm 1 mps 737 mmHg 52%
    10:00 +36°C° 0.1 mm 2 mps 737 mmHg 49%
    11:00 +37°C° 0.1 mm 3 mps 736 mmHg 46%
    12:00 +36°C° 0.2 mm 3 mps 736 mmHg 49%
    13:00 +35°C° 0.2 mm 3 mps 735 mmHg 52%
    14:00 +34°C° 0.2 mm 4 mps 735 mmHg 55%
    15:00 +33°C° 0.5 mm 3 mps 735 mmHg 62%
    16:00 +31°C° 0.5 mm 2 mps 735 mmHg 68%
    17:00 +30°C° 0.5 mm 2 mps 735 mmHg 74%
    18:00 +29°C° 0.5 mm 1 mps 735 mmHg 79%
    19:00 +28°C° 0.5 mm 1 mps 736 mmHg 84%
    20:00 +25°C° 0.5 mm 0 mps 736 mmHg 88%
    21:00 +25°C° 0.1 mm 0 mps 737 mmHg 89%
    22:00 +25°C° 0.1 mm 0 mps 737 mmHg 89%
    23:00 +26°C° 0.1 mm 1 mps 737 mmHg 90%

    24 June, Monday

    Time Temperature Precipitation Wind Pressure Humidity
    00:00 +26°C° 0.2 mm 1 mps 736 mmHg 90%
    01:00 +26°C° 0.2 mm 1 mps 736 mmHg 91%
    02:00 +26°C° 0.2 mm 1 mps 735 mmHg 91%
    03:00 +25°C° 0.1 mm 1 mps 735 mmHg 91%
    04:00 +25°C° 0.1 mm 1 mps 735 mmHg 91%
    05:00 +25°C° 0.1 mm 1 mps 735 mmHg 91%
    06:00 +28°C° 0 mm 1 mps 736 mmHg 81%
    07:00 +30°C° 0 mm 1 mps 736 mmHg 70%
    08:00 +31°C° 0 mm 0 mps 737 mmHg 60%
    09:00 +35°C° 0.1 mm 2 mps 737 mmHg 56%
    10:00 +35°C° 0.1 mm 3 mps 736 mmHg 51%
    11:00 +36°C° 0.1 mm 5 mps 736 mmHg 46%
    12:00 +35°C° 0.5 mm 5 mps 736 mmHg 54%
    13:00 +34°C° 0.5 mm 5 mps 735 mmHg 61%
    14:00 +33°C° 0.5 mm 6 mps 735 mmHg 68%
    15:00 +32°C° 1.2 mm 6 mps 735 mmHg 72%
    16:00 +29°C° 1.2 mm 6 mps 735 mmHg 77%
    17:00 +28°C° 1.2 mm 6 mps 734 mmHg 82%
    18:00 +27°C° 0.5 mm 5 mps 735 mmHg 85%
    19:00 +26°C° 0.5 mm 4 mps 735 mmHg 88%
    20:00 +26°C° 0.5 mm 3 mps 736 mmHg 92%
    21:00 +26°C° 0.4 mm 3 mps 736 mmHg 92%
    22:00 +26°C° 0.4 mm 2 mps 736 mmHg 92%
    23:00 +26°C° 0.4 mm 2 mps 736 mmHg 92%

    25 June, Tuesday

    Time Temperature Precipitation Wind Pressure Humidity
    00:00 +25°C° 0.1 mm 2 mps 736 mmHg 92%
    01:00 +25°C° 0.1 mm 2 mps 736 mmHg 91%
    02:00 +25°C° 0.1 mm 2 mps 735 mmHg 91%
    03:00 +25°C° 0 mm 2 mps 735 mmHg 90%
    04:00 +25°C° 0 mm 2 mps 735 mmHg 89%
    05:00 +25°C° 0 mm 1 mps 735 mmHg 88%
    06:00 +27°C° 0 mm 2 mps 736 mmHg 78%
    07:00 +29°C° 0 mm 2 mps 736 mmHg 69%
    08:00 +32°C° 0 mm 2 mps 737 mmHg 59%
    09:00 +34°C° 0 mm 2 mps 736 mmHg 55%
    10:00 +35°C° 0 mm 3 mps 736 mmHg 50%
    11:00 +36°C° 0 mm 3 mps 736 mmHg 46%
    12:00 +36°C° 0 mm 4 mps 735 mmHg 48%
    13:00 +36°C° 0 mm 4 mps 735 mmHg 51%
    14:00 +35°C° 0 mm 4 mps 734 mmHg 53%
    15:00 +34°C° 1.1 mm 3 mps 734 mmHg 63%
    16:00 +31°C° 1.1 mm 3 mps 734 mmHg 72%
    17:00 +29°C° 1.1 mm 2 mps 734 mmHg 82%
    18:00 +28°C° 1.9 mm 2 mps 735 mmHg 86%
    19:00 +27°C° 1.9 mm 1 mps 735 mmHg 90%
    20:00 +26°C° 1.9 mm 1 mps 736 mmHg 94%
    21:00 +26°C° 0.7 mm 1 mps 736 mmHg 94%
    22:00 +26°C° 0.7 mm 1 mps 736 mmHg 94%
    23:00 +26°C° 0.7 mm 1 mps 737 mmHg 94%

    26 June, Wednesday

    Time Temperature Precipitation Wind Pressure Humidity
    00:00 +26°C° 0.1 mm 1 mps 736 mmHg 94%
    01:00 +25°C° 0.1 mm 1 mps 736 mmHg 94%
    02:00 +25°C° 0.1 mm 1 mps 736 mmHg 94%
    03:00 +25°C° 0.1 mm 1 mps 736 mmHg 93%
    04:00 +25°C° 0.1 mm 1 mps 736 mmHg 93%
    05:00 +25°C° 0.1 mm 1 mps 736 mmHg 92%
    06:00 +27°C° 0 mm 1 mps 736 mmHg 84%
    07:00 +29°C° 0 mm 1 mps 737 mmHg 75%
    08:00 +29°C° 0 mm 0 mps 737 mmHg 66%
    09:00 +33°C° 0 mm 1 mps 737 mmHg 59%
    10:00 +35°C° 0 mm 1 mps 737 mmHg 52%
    11:00 +37°C° 0 mm 2 mps 736 mmHg 45%
    12:00 +36°C° 0.2 mm 2 mps 736 mmHg 50%
    13:00 +35°C° 0.2 mm 2 mps 735 mmHg 54%
    14:00 +34°C° 0.2 mm 3 mps 735 mmHg 59%
    15:00 +32°C° 0.1 mm 2 mps 735 mmHg 63%
    16:00 +31°C° 0.1 mm 2 mps 735 mmHg 68%
    17:00 +30°C° 0.1 mm 2 mps 735 mmHg 73%
    18:00 +29°C° 0.1 mm 1 mps 735 mmHg 77%
    19:00 +28°C° 0.1 mm 1 mps 736 mmHg 81%
    20:00 +25°C° 0.1 mm 0 mps 737 mmHg 85%
    21:00 +25°C° 0 mm 0 mps 737 mmHg 86%
    22:00 +27°C° 0 mm 1 mps 737 mmHg 87%
    23:00 +27°C° 0 mm 1 mps 737 mmHg 87%
    Show more